Regional Weather Roundup
Issued by NWS

Home | Current Version | Previous Version | Text Only | Print | Product List | Glossary On
Versions: 1 2 3 4 5 6 7 8 9 10 11 12 13 14 15 16 17 18 19 20 21 22 23 24 25 26 27 28 29 30 31 32 33 34 35 36 37 38 39 40 41 42 43 44 45 46 47 48 49 50
000
ASUS43 KDTX 251710
RWRMI
MICHIGAN HOURLY REGIONAL WEATHER ROUNDUP
NATIONAL WEATHER SERVICE DETROIT/PONTIAC MI
100 PM EDT SAT APR 25 2015

NOTE: "FAIR" INDICATES FEW OR NO CLOUDS BELOW 12,000 FEET WITH NO
SIGNIFICANT WEATHER AND/OR OBSTRUCTION TO VISIBILITY.

MIZ047>049-052>055-059>063-066>070-074>076-081>083-251800-
SOUTHEAST LOWER MICHIGAN

CITY           SKY/WX    TMP DP  RH WIND       PRES   REMARKS
ADRIAN         CLOUDY    45  36  70 E14       29.84F
ALMA           PTSUNNY   49  28  44 NE16      29.89F
ANN ARBOR      CLOUDY    48  30  49 E12       29.86F
BAD AXE        SUNNY     45  22  41 E9G17     29.95F
DETROIT CITY   CLOUDY    45  27  49 E13       29.90F
DETROIT        CLOUDY    50  28  42 NE7       29.89F
FLINT          PTSUNNY   52  28  39 E15       29.89F
GROSSE ILE     CLOUDY    50  28  43 NE10      29.88S
HILLSDALE      CLOUDY    44  40  86 E17       29.81F
HOWELL         CLOUDY    49  29  46 E9        29.86F

CITY           SKY/WX    TMP DP  RH WIND       PRES   REMARKS
JACKSON        CLOUDY    46  36  68 E15       29.83F
LAMBERTVILLE   CLOUDY    45  36  70 E10G18    29.85F
LANSING        CLOUDY    50  33  52 E13       29.86F
LAPEER         NOT AVBL
MASON          CLOUDY    48  33  56 E6        29.85F
MONROE         CLOUDY    45  30  57 E13       29.87S
MT. CLEMENS    PTSUNNY   46  27  47 E10       29.88F
PONTIAC        PTSUNNY   47  25  42 E9        29.87F
PORT HOPE        N/A     39  28  64 NE9       29.96F
PORT HURON     MOSUNNY   46  25  42 NE10      29.91F
TRI CITIES     PTSUNNY   47  26  44 NE14      29.91F
YPSILANTI      CLOUDY    53  27  36 E13       29.87F
$$
MIZ043>046-050>051-056>058-064>065-071>073-077>080-251800-
SOUTHWEST LOWER MICHIGAN

CITY           SKY/WX    TMP DP  RH WIND       PRES   REMARKS
BATTLE CREEK   CLOUDY    45  38  76 E9        29.83S
BENTON HARBOR  CLOUDY    49  39  68 SE14G24   29.78F
BIG RAPIDS     MOSUNNY   48  29  47 NE9       29.87F
COLDWATER      CLOUDY    45  39  80 E10G18    29.81S
HOLLAND        PTSUNNY   49  38  65 E14       29.82F
GRAND RAPIDS   PTSUNNY   50  34  54 E21       29.83F
KALAMAZOO      CLOUDY    47  39  74 E13G21    29.81F
MARSHALL       CLOUDY    44  38  78 E7        29.82F
MUSKEGON       CLOUDY    51  33  50 E16G23    29.84F
$$
MIZ016>042-251800-
NORTHERN LOWER MICHIGAN

CITY           SKY/WX    TMP DP  RH WIND       PRES   REMARKS
ALPENA         SUNNY     48  23  37 S13       29.97F
BEAVER ISLAND  SUNNY     44  20  39 NE12      29.98F
BELLAIRE       CLOUDY    51  13  21 E7        29.92F
CADILLAC       CLOUDY    49  21  33 E9G17     29.87F
CHARLEVOIX     SUNNY     41  27  57 N9        29.98S
FRANKFORT      PTSUNNY   52  12  20 NE8G16    29.90F
GAYLORD        SUNNY     46  17  31 NE7       29.92F
GRAYLING       PTSUNNY   49  11  21 NE8       29.92F
HARBOR SPRINGS SUNNY     47  21  35 NE10G17   29.96S
HOUGHTON LAKE  MOSUNNY   50  19  29 NE15      29.90F
MANISTEE       MOSUNNY   48  21  34 E6        29.89F
OSCODA         SUNNY     45  26  47 E8        29.97F
PELLSTON       SUNNY     48  22  35 E8        29.97F
TRAVERSE CITY  MOSUNNY   48  21  34 N13       29.91F
$$
MIZ007>008-015-251800-
EASTERN UPPER MICHIGAN

CITY           SKY/WX    TMP DP  RH WIND       PRES   REMARKS
KINROSS        SUNNY     46  18  31 SE7       29.98F
MACKINAC ISLAN SUNNY     41  22  48 E6        29.99F
NEWBERRY       SUNNY     46  24  42 N6        29.98F
S. S. MARIE    SUNNY     47  20  34 MISG      29.97F
$$
MIZ004>006-011>014-085-251800-
CENTRAL UPPER MICHIGAN

CITY           SKY/WX    TMP DP  RH WIND       PRES   REMARKS
MANISTIQUE     SUNNY     44  24  44 SE13      29.98F
ESCANABA       SUNNY     46  19  34 E14       29.98S
MENOMINEE      PTSUNNY   43  18  36 E18       29.97R
SAWYER-GWINN   SUNNY     41  25  52 NE13G18   29.98F
$$
MIZ001>003-009>011-084-251800-
WESTERN UPPER MICHIGAN

CITY           SKY/WX    TMP DP  RH WIND       PRES   REMARKS
IRON MOUNTAIN  MOSUNNY   49  15  25 NE5       29.94F
HOUGHTON       SUNNY     41  20  43 E14       30.01S
COPPER HARBOR    N/A     39  28  64 E8        30.04S
IRONWOOD       SUNNY     50  25  37 NW6       29.92S
$$

ABBREVIATIONS USED IN REMARKS
   TC - TEMPERATURE IN CELSIUS
  WCI - WIND CHILL INDEX
   HX - HEAT INDEX
  VSB - VISIBILITY



USA.gov is the U.S. government's official web portal to all federal, state and local government web resources and services.